DW5657 Weather Reports


Display with metric or nautical units.
time (UTC)temp
F
wind
direction
speed
MPH
gust
MPH
rain 1hr
in
rain 24hr
in
rain mn
in
humidity
%
barometer
mb
20260831015204 80 42 0.0 0.0 0.00 0.00 0.00 66 1016.9
20260831014704 80 42 0.0 0.0 0.00 0.00 0.00 66 1016.9
20260831013704 80 42 0.0 0.0 0.00 0.00 0.00 65 1016.9
20260831013204 81 43 0.0 0.0 0.00 0.00 0.00 65 1016.9
20260831012706 81 41 0.0 0.0 0.00 0.00 0.00 65 1016.9
20260831012204 81 37 0.0 0.0 0.00 0.00 0.00 65 1016.8
20260831011704 82 42 0.0 0.0 0.00 0.00 0.00 65 1016.7
20260831011204 82 43 0.0 0.0 0.00 0.00 0.00 65 1016.7
20260831010705 82 41 0.0 0.0 0.00 0.00 0.00 65 1016.7
20260831010205 82 38 0.0 0.0 0.00 0.00 0.00 64 1016.7
20260831005704 83 42 0.0 0.0 0.00 0.00 0.00 63 1016.6
20260831005204 83 40 0.0 0.0 0.00 0.00 0.00 62 1016.5
20260831004704 83 37 0.0 0.0 0.00 0.00 0.00 61 1016.3
20260831004205 84 36 0.0 0.0 0.00 0.00 0.00 61 1016.3
20260831003704 84 35 0.0 0.0 0.00 0.00 0.00 61 1016.3
20260831003204 84 32 0.0 0.0 0.00 0.00 0.00 59 1016.4
20260831002704 85 37 0.0 0.0 0.00 0.00 0.00 59 1016.3
20260831002204 85 40 0.0 0.0 0.00 0.00 0.00 59 1016.3
20260831001704 85 45 0.0 0.0 0.00 0.00 0.00 58 1016.3
20260831001204 85 50 0.0 0.0 0.00 0.00 0.00 58 1016.3
20260831000204 86 65 0.0 0.0 0.00 0.00 0.00 57 1016.2
20260830235704 86 72 0.0 0.0 0.00 0.00 0.00 56 1016.3
20260830235205 86 79 0.0 0.0 0.00 0.00 0.00 56 1016.2
20260830234704 87 79 0.0 0.0 0.00 0.00 0.00 56 1016.2
20260830234204 87 84 1.0 3.0 0.00 0.00 0.00 55 1016.1
20260830233704 87 87 1.0 3.0 0.00 0.00 0.00 55 1016.2
20260830232704 87 224 2.0 5.0 0.00 0.00 0.00 55 1016.0
20260830232205 87 199 0.0 3.0 0.00 0.00 0.00 55 1015.9
20260830231705 88 228 1.0 6.0 0.00 0.00 0.00 54 1015.9
20260830231206 88 223 2.0 6.0 0.00 0.00 0.00 54 1015.8
20260830230205 88 217 2.0 8.0 0.00 0.00 0.00 54 1015.6
20260830225704 88 213 1.0 3.0 0.00 0.00 0.00 54 1015.6
20260830225204 88 224 1.0 3.0 0.00 0.00 0.00 54 1015.6
20260830224705 88 218 2.0 5.0 0.00 0.00 0.00 54 1015.7
20260830224204 88 222 1.0 2.0 0.00 0.00 0.00 53 1015.7
20260830223205 88 206 2.0 3.0 0.00 0.00 0.00 53 1015.7
20260830222704 88 213 0.0 2.0 0.00 0.00 0.00 52 1015.6
20260830222204 88 232 1.0 3.0 0.00 0.00 0.00 52 1015.6
20260830221704 88 209 1.0 3.0 0.00 0.00 0.00 52 1015.5
20260830221204 88 180 1.0 5.0 0.00 0.00 0.00 51 1015.5
20260830220705 88 191 1.0 5.0 0.00 0.00 0.00 51 1015.6
20260830215705 89 223 3.0 6.0 0.00 0.00 0.00 50 1015.7
20260830214705 89 216 1.0 6.0 0.00 0.00 0.00 49 1015.8
20260830214204 89 244 2.0 7.0 0.00 0.00 0.00 49 1015.8
20260830213705 90 205 1.0 6.0 0.00 0.00 0.00 49 1015.8
20260830213204 90 243 2.0 6.0 0.00 0.00 0.00 48 1015.8
20260830212704 90 220 1.0 3.0 0.00 0.00 0.00 48 1015.8
20260830212205 89 216 1.0 5.0 0.00 0.00 0.00 50 1015.8
20260830211705 89 90 1.0 5.0 0.00 0.00 0.00 50 1015.7
20260830210705 89 209 2.0 6.0 0.00 0.00 0.00 52 1015.9
20260830210204 89 215 1.0 5.0 0.00 0.00 0.00 51 1016.0
20260830205704 89 224 2.0 5.0 0.00 0.00 0.00 49 1016.1
20260830205204 89 193 2.0 5.0 0.00 0.00 0.00 50 1016.2
20260830204705 89 260 3.0 5.0 0.00 0.00 0.00 50 1016.3
20260830204203 90 231 1.0 5.0 0.00 0.00 0.00 50 1016.2
20260830203704 89 169 1.0 6.0 0.00 0.00 0.00 51 1016.3
20260830203204 89 249 0.0 6.0 0.00 0.00 0.00 51 1016.4
20260830202704 89 129 1.0 3.0 0.00 0.00 0.00 49 1016.5
20260830202205 89 270 0.0 2.0 0.00 0.00 0.00 50 1016.6
20260830201704 89 115 1.0 6.0 0.00 0.00 0.00 50 1016.7
20260830201204 89 215 2.0 6.0 0.00 0.00 0.00 51 1016.8
20260830200704 89 172 2.0 7.0 0.00 0.00 0.00 50 1016.9
20260830200204 89 213 1.0 5.0 0.00 0.00 0.00 51 1017.0
20260830195704 89 237 2.0 7.0 0.00 0.00 0.00 50 1017.0
20260830195203 89 222 0.0 6.0 0.00 0.00 0.00 51 1017.1
20260830194704 88 224 2.0 5.0 0.00 0.00 0.00 53 1017.2
20260830194204 88 242 2.0 6.0 0.00 0.00 0.00 52 1017.3
20260830193704 88 194 1.0 3.0 0.00 0.00 0.00 52 1017.4
20260830193204 88 222 1.0 3.0 0.00 0.00 0.00 51 1017.6
20260830192704 88 250 0.0 1.0 0.00 0.00 0.00 53 1017.6
20260830192205 88 255 0.0 2.0 0.00 0.00 0.00 52 1017.8
20260830191704 88 341 1.0 6.0 0.00 0.00 0.00 52 1017.8
20260830190205 88 210 3.0 8.0 0.00 0.00 0.00 52 1018.1
20260830185704 88 209 2.0 7.0 0.00 0.00 0.00 51 1018.2
20260830185206 88 227 3.0 9.0 0.00 0.00 0.00 50 1018.3
20260830184705 88 264 2.0 9.0 0.00 0.00 0.00 52 1018.4
20260830184204 88 258 3.0 7.0 0.00 0.00 0.00 52 1018.4
20260830183705 88 226 5.0 9.0 0.00 0.00 0.00 51 1018.5
20260830183204 88 346 3.0 8.0 0.00 0.00 0.00 52 1018.5
20260830182704 89 257 2.0 5.0 0.00 0.00 0.00 54 1018.5
20260830182205 89 245 2.0 5.0 0.00 0.00 0.00 54 1018.5
20260830181704 89 231 5.0 9.0 0.00 0.00 0.00 52 1018.6
20260830181205 89 204 5.0 9.0 0.00 0.00 0.00 51 1018.6
20260830180704 89 231 3.0 7.0 0.00 0.00 0.00 52 1018.7
20260830175704 89 215 5.0 10.0 0.00 0.00 0.00 49 1018.8
20260830175205 89 222 2.0 9.0 0.00 0.00 0.00 48 1018.8
20260830174705 89 263 2.0 6.0 0.00 0.00 0.00 50 1018.8
20260830174204 89 229 2.0 5.0 0.00 0.00 0.00 50 1018.9
20260830173704 89 206 3.0 8.0 0.00 0.00 0.00 48 1018.9
20260830172704 89 295 1.0 7.0 0.00 0.00 0.00 50 1019.1
20260830172205 89 211 6.0 12.0 0.00 0.00 0.00 49 1019.1
20260830170704 88 220 5.0 9.0 0.00 0.00 0.00 52 1019.1
20260830170204 88 267 3.0 7.0 0.00 0.00 0.00 53 1019.1
20260830165704 88 259 2.0 6.0 0.00 0.00 0.00 53 1019.1
20260830165204 88 259 5.0 8.0 0.00 0.00 0.00 54 1019.1
20260830164704 88 230 4.0 8.0 0.00 0.00 0.00 55 1019.1
20260830164204 88 227 3.0 6.0 0.00 0.00 0.00 57 1019.0
20260830163204 87 197 3.0 6.0 0.00 0.00 0.00 58 1019.0
20260830162705 87 220 3.0 9.0 0.00 0.00 0.00 58 1019.0
20260830162204 87 244 1.0 5.0 0.00 0.00 0.00 61 1019.0
20260830161704 87 221 2.0 5.0 0.00 0.00 0.00 60 1019.0
20260830161205 86 224 3.0 6.0 0.00 0.00 0.00 61 1019.0
20260830160704 86 142 2.0 6.0 0.00 0.00 0.00 63 1019.0
20260830160205 86 227 1.0 6.0 0.00 0.00 0.00 62 1019.0
20260830155704 85 216 1.0 6.0 0.00 0.00 0.00 63 1019.0
20260830155205 85 219 2.0 6.0 0.00 0.00 0.00 63 1019.1
20260830154704 85 224 2.0 7.0 0.00 0.00 0.00 64 1019.0
20260830154204 84 222 2.0 7.0 0.00 0.00 0.00 64 1019.1
20260830153204 84 195 1.0 6.0 0.00 0.00 0.00 66 1019.1
20260830152204 84 188 0.0 2.0 0.00 0.00 0.00 68 1018.9
20260830151704 83 238 2.0 7.0 0.00 0.00 0.00 67 1018.9
20260830151204 83 296 1.0 3.0 0.00 0.00 0.00 67 1018.8
20260830150703 83 214 2.0 5.0 0.00 0.00 0.00 68 1018.8
20260830150204 82 211 1.0 6.0 0.00 0.00 0.00 68 1018.8
20260830145705 82 226 3.0 6.0 0.00 0.00 0.00 67 1018.7
20260830145204 82 233 1.0 5.0 0.00 0.00 0.00 70 1018.6
20260830144705 82 221 2.0 5.0 0.00 0.00 0.00 69 1018.6
20260830144204 82 205 1.0 3.0 0.00 0.00 0.00 69 1018.5
20260830143704 81 162 1.0 2.0 0.00 0.00 0.00 71 1018.5
20260830143204 81 236 2.0 5.0 0.00 0.00 0.00 69 1018.4
20260830142704 81 225 1.0 5.0 0.00 0.00 0.00 71 1018.3
20260830142204 80 179 0.0 2.0 0.00 0.00 0.00 71 1018.3
20260830141704 80 91 0.0 0.0 0.00 0.00 0.00 70 1018.2
20260830141205 80 164 0.0 5.0 0.00 0.00 0.00 71 1018.1
20260830140704 80 228 2.0 5.0 0.00 0.00 0.00 71 1018.1
20260830140204 79 201 0.0 0.0 0.00 0.00 0.00 71 1018.1
20260830135704 79 86 0.0 1.0 0.00 0.00 0.00 72 1018.1
20260830135204 79 232 1.0 3.0 0.00 0.00 0.00 72 1018.1
20260830134704 78 243 2.0 5.0 0.00 0.00 0.00 73 1018.0
20260830134204 78 232 1.0 5.0 0.00 0.00 0.00 73 1018.0
20260830133704 78 217 1.0 3.0 0.00 0.00 0.00 74 1017.9
20260830133204 77 224 1.0 2.0 0.00 0.00 0.00 75 1018.0
20260830132704 77 180 0.0 1.0 0.00 0.00 0.00 75 1018.1
20260830132205 77 213 1.0 3.0 0.00 0.00 0.00 75 1018.2
20260830131204 76 234 0.0 1.0 0.00 0.00 0.00 76 1018.3
20260830130704 76 201 0.0 1.0 0.00 0.00 0.00 77 1018.4
20260830130205 75 196 0.0 0.0 0.00 0.00 0.00 78 1018.4
20260830125704 75 166 0.0 0.0 0.00 0.00 0.00 79 1018.4
20260830125205 74 100 0.0 0.0 0.00 0.00 0.00 80 1018.4
20260830124704 74 96 0.0 0.0 0.00 0.00 0.00 80 1018.4
20260830124204 73 63 0.0 0.0 0.00 0.00 0.00 80 1018.4
20260830123704 73 41 0.0 2.0 0.00 0.00 0.00 80 1018.4
20260830122704 72 29 0.0 0.0 0.00 0.00 0.00 81 1018.5
20260830122204 72 24 0.0 0.0 0.00 0.00 0.00 82 1018.5
20260830121705 71 24 0.0 1.0 0.00 0.00 0.00 83 1018.5
20260830121204 70 25 0.0 3.0 0.00 0.00 0.00 84 1018.5
20260830120705 70 24 1.0 3.0 0.00 0.00 0.00 86 1018.4
20260830120204 70 24 0.0 0.0 0.00 0.00 0.00 86 1018.3
20260830115704 69 26 0.0 0.0 0.00 0.00 0.00 87 1018.3
20260830115205 69 26 0.0 0.0 0.00 0.00 0.00 87 1018.2
20260830114704 69 88 0.0 0.0 0.00 0.00 0.00 86 1018.1
20260830114204 69 101 0.0 0.0 0.00 0.00 0.00 86 1018.1
20260830113704 69 101 0.0 0.0 0.00 0.00 0.00 86 1018.0
20260830113206 69 100 0.0 0.0 0.00 0.00 0.00 86 1017.9
20260830112704 69 100 0.0 0.0 0.00 0.00 0.00 86 1017.9
20260830112204 69 100 0.0 0.0 0.00 0.00 0.00 85 1017.9
20260830111204 69 100 0.0 0.0 0.00 0.00 0.00 85 1017.9
20260830110705 69 100 0.0 0.0 0.00 0.00 0.00 85 1017.9
20260830110204 69 100 0.0 0.0 0.00 0.00 0.00 84 1017.9
20260830105704 69 100 0.0 0.0 0.00 0.00 0.00 84 1017.9
20260830104704 70 100 0.0 0.0 0.00 0.00 0.00 84 1017.8
20260830104206 70 100 0.0 0.0 0.00 0.00 0.00 83 1017.8
20260830103704 70 100 0.0 0.0 0.00 0.00 0.00 82 1017.8
20260830103204 70 101 0.0 0.0 0.00 0.00 0.00 82 1017.8
20260830102704 70 101 0.0 0.0 0.00 0.00 0.00 82 1017.8
20260830102204 71 101 0.0 0.0 0.00 0.00 0.00 82 1017.8
20260830101704 71 101 0.0 0.0 0.00 0.00 0.00 82 1017.8
20260830101205 71 101 0.0 0.0 0.00 0.00 0.00 82 1017.8
20260830095704 71 101 0.0 0.0 0.00 0.00 0.00 81 1017.9
20260830095205 71 101 0.0 0.0 0.00 0.00 0.00 81 1017.7
20260830094704 71 101 0.0 0.0 0.00 0.00 0.00 81 1017.7
20260830094204 71 101 0.0 0.0 0.00 0.00 0.00 81 1017.7
20260830093204 71 101 0.0 0.0 0.00 0.00 0.00 81 1017.6
20260830092704 71 101 0.0 0.0 0.00 0.00 0.00 81 1017.7
20260830092204 72 101 0.0 0.0 0.00 0.00 0.00 81 1017.7
20260830091704 72 101 0.0 0.0 0.00 0.00 0.00 81 1017.7
20260830091204 72 101 0.0 0.0 0.00 0.00 0.00 81 1017.7
20260830090704 72 101 0.0 2.0 0.00 0.00 0.00 81 1017.7
20260830090204 72 98 0.0 0.0 0.00 0.00 0.00 81 1017.7
20260830085204 72 98 0.0 0.0 0.00 0.00 0.00 80 1017.6
20260830084705 72 98 0.0 0.0 0.00 0.00 0.00 80 1017.6
20260830084204 72 98 0.0 0.0 0.00 0.00 0.00 80 1017.7
20260830083704 72 98 0.0 0.0 0.00 0.00 0.00 80 1017.8
20260830083204 72 98 0.0 0.0 0.00 0.00 0.00 80 1017.9
20260830082704 72 98 0.0 0.0 0.00 0.00 0.00 80 1017.8
20260830082205 72 98 0.0 0.0 0.00 0.00 0.00 80 1017.7
20260830081704 72 98 0.0 0.0 0.00 0.00 0.00 80 1017.8
20260830081204 72 98 0.0 0.0 0.00 0.00 0.00 80 1017.8
20260830080704 72 98 0.0 0.0 0.00 0.00 0.00 80 1017.8
20260830080204 72 98 0.0 1.0 0.00 0.00 0.00 81 1017.8
20260830075704 72 101 0.0 1.0 0.00 0.00 0.00 81 1017.8
20260830074705 72 98 0.0 0.0 0.00 0.00 0.00 81 1017.8
20260830074204 72 98 0.0 0.0 0.00 0.00 0.00 81 1017.9
20260830073705 72 98 0.0 0.0 0.00 0.00 0.00 81 1017.9
20260830073205 72 98 0.0 0.0 0.00 0.00 0.00 81 1018.0
20260830072704 72 98 0.0 0.0 0.00 0.00 0.00 81 1018.0
20260830072205 72 98 0.0 0.0 0.00 0.00 0.00 81 1018.0
20260830071704 72 98 0.0 0.0 0.00 0.00 0.00 81 1018.0
20260830071204 72 98 0.0 0.0 0.00 0.00 0.00 81 1018.1
20260830070704 72 98 0.0 0.0 0.00 0.00 0.00 81 1018.1
20260830070204 72 98 0.0 0.0 0.00 0.00 0.00 81 1018.1
20260830065704 72 98 0.0 0.0 0.00 0.00 0.00 81 1018.2
20260830065205 72 98 0.0 0.0 0.00 0.00 0.00 81 1018.3
20260830064704 72 98 0.0 0.0 0.00 0.00 0.00 81 1018.3
20260830063706 72 96 0.0 0.0 0.00 0.00 0.00 81 1018.3
20260830062703 72 98 0.0 0.0 0.00 0.00 0.00 80 1018.4
20260830062203 72 98 0.0 0.0 0.00 0.00 0.00 79 1018.5
20260830061704 72 98 0.0 0.0 0.00 0.00 0.00 79 1018.5
20260830061203 72 98 0.0 0.0 0.00 0.00 0.00 79 1018.5
20260830060203 72 98 0.0 0.0 0.00 0.00 0.00 78 1018.5
20260830055705 72 98 0.0 0.0 0.00 0.00 0.00 78 1018.5
20260830055204 73 98 0.0 0.0 0.00 0.00 0.00 78 1018.5
20260830054204 73 98 0.0 0.0 0.00 0.00 0.00 78 1018.5
20260830053705 73 98 0.0 0.0 0.00 0.00 0.00 78 1018.5
20260830053204 73 98 0.0 0.0 0.00 0.00 0.00 78 1018.5
20260830052704 73 98 0.0 0.0 0.00 0.00 0.00 78 1018.4
20260830051703 73 98 0.0 0.0 0.00 0.00 0.00 78 1018.4
20260830051204 73 98 0.0 1.0 0.00 0.00 0.00 78 1018.4
20260830050703 73 90 0.0 2.0 0.00 0.00 0.00 78 1018.3
20260830045704 73 104 0.0 0.0 0.00 0.00 0.00 78 1018.3
20260830044704 73 104 0.0 0.0 0.00 0.00 0.00 78 1018.2
20260830044203 73 104 0.0 0.0 0.00 0.00 0.00 78 1018.1
20260830043704 73 93 0.0 0.0 0.00 0.00 0.00 77 1018.2
20260830043204 73 93 0.0 0.0 0.00 0.00 0.00 77 1018.2
20260830042703 73 93 0.0 2.0 0.00 0.00 0.00 77 1018.2
20260830042204 73 139 0.0 0.0 0.00 0.00 0.00 77 1018.2
20260830041204 72 139 0.0 0.0 0.00 0.00 0.00 76 1018.3
20260830040704 72 139 0.0 0.0 0.00 0.00 0.00 76 1018.3
20260830040204 72 209 0.0 0.0 0.00 0.00 0.00 76 1018.3
20260830035704 72 209 0.0 0.0 0.00 0.00 0.00 75 1018.3
20260830035204 72 209 0.0 0.0 0.00 0.00 0.00 75 1018.3
20260830034704 72 209 0.0 0.0 0.00 0.00 0.00 75 1018.2
20260830033703 73 209 0.0 0.0 0.00 0.00 0.00 73 1018.3
20260830033204 73 209 0.0 0.0 0.00 0.00 0.00 73 1018.3
20260830032703 73 209 0.0 0.0 0.00 0.00 0.00 73 1018.3
20260830032204 73 209 0.0 0.0 0.00 0.00 0.00 74 1018.2
20260830031704 73 209 0.0 0.0 0.00 0.00 0.00 74 1018.2
20260830031203 73 209 0.0 0.0 0.00 0.00 0.00 73 1018.2
20260830030203 74 209 0.0 0.0 0.00 0.00 0.00 72 1018.1
20260830025704 74 73 0.0 0.0 0.00 0.00 0.00 72 1018.1
20260830025203 74 54 0.0 0.0 0.00 0.00 0.00 72 1018.1
20260830024704 74 55 0.0 0.0 0.00 0.00 0.00 73 1018.2
20260830024203 74 53 0.0 0.0 0.00 0.00 0.00 71 1018.2
20260830023704 74 52 0.0 0.0 0.00 0.00 0.00 71 1018.2
20260830022703 75 51 0.0 0.0 0.00 0.00 0.00 70 1018.1
20260830022204 75 51 0.0 0.0 0.00 0.00 0.00 70 1018.1
20260830021703 75 51 0.0 0.0 0.00 0.00 0.00 68 1018.1
20260830021205 75 51 0.0 0.0 0.00 0.00 0.00 68 1018.0
20260830020204 75 49 0.0 0.0 0.00 0.00 0.00 68 1018.1
20260830015703 76 50 0.0 0.0 0.00 0.00 0.00 68 1018.1